Weather Roundup
Issued by NWS Chicago, IL

Home | Current Version | Previous Version | Graphics & Text | Print | Product List | Glossary On
Versions: 1 2 3 4 5 6 7 8 9 10 11 12 13 14 15 16 17 18 19 20 21 22 23 24 25 26 27 28 29 30 31 32 33 34 35 36 37 38 39 40 41 42 43 44 45 46 47 48 49 50
177
NZUS59 KLOT 260308
HRRLOT

CHICAGO AREA WEATHER ROUNDUP
NATIONAL WEATHER SERVICE CHICAGO/ROMEOVILLE IL
1000 PM CDT WED MAY 25 2016

NOTE: "FAIR" INDICATES FEW OR NO CLOUDS BELOW 12,000 FEET WITH NO
SIGNIFICANT WEATHER AND/OR OBSTRUCTIONS TO VISIBILITY.

* THESE STATIONS ARE NOT UNDER NWS QUALITY CONTROL. THEY ALSO MAY NOT
  REPORT WEATHER SUCH AS PRECIPITATION OR FOG.

ILZ005-006-012>014-019>023-260400-
NORTHEAST ILLINOIS

CITY           SKY/WX    TMP DP  RH WIND       PRES   REMARKS
OHARE          LGT RAIN  68  65  90 E5        29.94R
MIDWAY         CLOUDY    69  64  84 E8        29.95R
AURORA         PTCLDY    67  65  93 E6        29.94R
LANSING*       CLOUDY    67  63  85 NE8       29.97R
JOLIET*        CLOUDY    69  66  91 E3        29.94S
WAUKEGAN       CLOUDY    65  63  93 SE12      29.93F THUNDER
DUPAGE AIRPORT CLOUDY    67  64  90 SE7       29.94R
WHEELING       TSTM      66  64  93 E8        29.94R FOG
KANKAKEE*      CLOUDY   N/A N/A N/A S13       29.96S
MORRIS*        PTCLDY    72  64  75 SW7       29.92S
LEWIS AIRPORT* CLOUDY    67  64  90 S5        29.94R
$$

WIZ051-052-058>065-066-070>072-260400-
SOUTHEAST WISCONSIN

CITY           SKY/WX    TMP DP  RH WIND       PRES   REMARKS
MILWAUKEE      CLOUDY    56  55  97 E6        29.92F FOG
KENOSHA*       CLOUDY    67  64  90 S8        29.93R
RACINE*        CLOUDY    60  57  89 SE6       29.94F
BURLINGTON     CLOUDY    64  63  95 S3        29.92S
WAUKESHA       CLOUDY    59  57  94 E5        29.93S FOG
WEST BEND      CLOUDY    59  57  94 E3        29.92F FOG
$$

INZ001>003-010>013-019-020-260400-
NORTHWEST INDIANA

CITY           SKY/WX    TMP DP  RH WIND       PRES   REMARKS
GARY*          MOCLDY    66  66 100 VRB5      29.98R
MICHIGAN CITY* NOT AVBL
RENSSELAER*    NOT AVBL
VALPARAISO     CLOUDY    69  64  84 N5        29.98R
$$

LMZ740>746-260400-
SOUTHERN LAKE MICHIGAN

STATION/POSITION TIME  SKY/WX   TEMP WIND        PRES    VSBY
                                AIR  DIR/SP/G
                 (UTC)          (F)  (DEG/KT/KT) (MB)    (MI)
HARRISON CRIB    0200            64  330/  5/  6   N/A
BURNHAM HARBOR   0300            61  350/  5/ 10   N/A
CALUMET HARBOR   0200                300/  4/  7 1014.1R
BURNS HARBOR     0200            62   50/  8/ 13 1014.9R
MICHIGAN CITY    0200            63  330/ 11/ 12   N/A
$$

ABBREVIATIONS USED IN REMARKS
   TC - TEMPERATURE IN CELSIUS
  WCI - WIND CHILL INDEX
   HX - HEAT INDEX
  VSB - VISIBILITY
$$




USA.gov is the U.S. government's official web portal to all federal, state and local government web resources and services.